Regional Weather Roundup
Issued by NWS State College, PA

Home | Current Version | Previous Version | Text Only | Print | Product List | Glossary On
Versions: 1 2 3 4 5 6 7 8 9 10 11 12 13 14 15 16 17 18 19 20 21 22 23 24 25 26 27 28 29 30 31 32 33 34 35 36 37 38 39 40 41 42 43 44 45 46 47 48 49 50
000
ASUS41 KCTP 251110
RWRCTP

REGIONAL WEATHER ROUNDUP
NATIONAL WEATHER SERVICE STATE COLLEGE PA
700 AM EDT FRI MAY 25 2018

Note: "fair" indicates few or no clouds below 12,000 feet with no
significant weather and/or obstructions to visibility.

* = STATION THAT DOES NOT REPORT PRECIPITATION /E.G. RAIN...SNOW...ETC/
    THUNDER OR FOG.

PAZ002>004-007>009-013>016-020>023-029>032-251200-
WESTERN PENNSYLVANIA

CITY           SKY/WX    TMP DP  RH WIND       PRES   REMARKS
ERIE           FAIR      61  47  59 S7        30.04S
MEADVILLE      FAIR      60  48  64 SE5       30.07S
FRANKLIN*      FAIR      53  50  89 CALM      30.09S
NEW CASTLE     FAIR      54  54 100 CALM      30.08  FOG
BEAVER COUNTY  MOSUNNY   57  54  88 S5        30.07
BUTLER*        FAIR      53  51  93 NE3       30.08S
PITTSBURGH INT FAIR      57  53  86 CALM      30.06S
PITTSBURGH     FAIR      57  55  93 SE5       30.07S
INDIANA*       PTSUNNY   57  54  88 CALM      30.12F
LATROBE        MOSUNNY   54  54 100 CALM      30.09S
WASHINGTON CO* FAIR      56  54  93 CALM      30.10S
$$

PAZ004>006-010>012-017>019-024>028-033>037-041-042-045-046-049>053-251200-
CENTRAL PENNSYLVANIA

CITY           SKY/WX    TMP DP  RH WIND       PRES   REMARKS
BRADFORD       FAIR      46  44  93 SE3       30.10S
DUBOIS         FAIR      55  50  83 CALM      30.09R
CLEARFIELD     FAIR      52  49  89 CALM      30.10S
JOHNSTOWN      FAIR      63  47  55 S6        30.12S
ALTOONA        FAIR      63  51  65 CALM      30.10F
STATE COLLEGE  SUNNY     55  52  88 CALM      30.09S
WILLIAMSPORT   FAIR      56  52  86 CALM      30.07S
SELINSGROVE    FAIR      53  52  96 CALM      30.08S
FT INDIANTOWN  FAIR      54  53  97 CALM      30.09S
CAPITAL CITY   FAIR      59  54  83 CALM      30.09S
HARRISBURG     FAIR      60  56  86 CALM      30.08S
YORK           FAIR      56  54  93 CALM      30.09S
$$

PAZ038>040-043-044-047-048-054-055-060>062-067>071-251200-
EASTERN PENNSYLVANIA

CITY           SKY/WX    TMP DP  RH WIND       PRES   REMARKS
SCRANTON       FAIR      56  53  90 CALM      30.08S
MOUNT POCONO   FAIR      58  50  75 W5        30.10S
ALLENTOWN      FAIR      58  53  84 NW3       30.07F
QUAKERTOWN*    SUNNY     57  54  88 CALM      30.08F
READING        FAIR      61  56  83 CALM      30.08S
LANCASTER      FAIR      58  54  86 CALM      30.09S
COATESVILLE    FAIR      63  52  67 W5        30.11S
POTTSTOWN      FAIR      58  55  90 CALM      30.10S
BLUE BELL      FAIR      59  59 100 CALM      30.10S
DOYLESTOWN     FAIR      60  55  83 SW3       30.07F
WILLOW GROVE   NOT AVBL
NORTH PHILA    FAIR      67  59  75 SW7       30.10S
PHILADELPHIA   FAIR      63  60  90 SW8       30.10R
$$




USA.gov is the U.S. government's official web portal to all federal, state and local government web resources and services.